CW7933 Weather Reports


Display with metric or nautical units.
time (UTC)temp
F
wind
direction
speed
MPH
gust
MPH
rain 1hr
in
rain 24hr
in
rain mn
in
humidity
%
barometer
mb
20210728052727 66 283 0.0 0.0 0.00 0.51 0.00 95 1015.6
20210728051727 66 283 0.0 0.0 0.00 0.51 0.00 95 1015.4
20210728050727 66 283 0.0 0.0 0.00 0.51 0.00 95 1015.3
20210728044726 67 282 0.0 0.0 0.00 0.51 0.00 95 1015.1
20210728043726 67 282 0.0 0.0 0.00 0.51 0.00 95 1015.1
20210728042726 67 307 0.0 0.0 0.00 0.51 0.00 95 1015.2
20210728041726 67 307 0.0 0.0 0.00 0.51 0.00 95 1015.2
20210728040756 67 307 0.0 0.0 0.00 0.51 0.00 95 1015.2
20210728034726 67 307 0.0 0.0 0.01 0.51 0.51 95 1015.3
20210728033725 67 307 0.0 0.0 0.01 0.51 0.51 95 1015.2
20210728032725 67 307 0.0 0.0 0.01 0.51 0.51 95 1015.2
20210728030725 67 307 0.0 0.0 0.01 0.51 0.51 95 1015.1
20210728025725 67 308 0.0 0.0 0.01 0.51 0.51 95 1015.1
20210728024725 67 317 0.0 0.0 0.00 0.50 0.50 95 1015.1
20210728023725 67 323 0.0 0.0 0.00 0.50 0.50 95 1015.0
20210728022725 67 323 0.0 0.0 0.00 0.50 0.50 95 1015.0
20210728021724 67 323 0.0 0.0 0.00 0.50 0.50 95 1014.9
20210728020724 67 279 0.0 0.0 0.00 0.50 0.50 95 1014.7
20210728015724 67 279 0.0 0.0 0.00 0.50 0.50 95 1014.7
20210728013724 67 279 0.0 0.0 0.00 0.50 0.50 95 1014.3
20210728012724 67 279 0.0 0.0 0.00 0.50 0.50 95 1014.4
20210728011724 67 279 0.0 0.0 0.00 0.50 0.50 95 1014.3
20210728010724 67 266 0.0 0.0 0.00 0.50 0.50 95 1014.2
20210728005724 67 266 0.0 0.0 0.00 0.50 0.50 95 1014.2
20210728003723 67 266 0.0 0.0 0.00 0.50 0.50 95 1013.9
20210728002723 67 266 0.0 0.0 0.00 0.50 0.50 95 1013.9
20210728001723 68 266 0.0 0.0 0.00 0.50 0.50 95 1013.9
20210728000723 67 266 0.0 0.0 0.00 0.50 0.50 95 1014.0
20210727235722 68 266 1.0 1.0 0.00 0.50 0.50 95 1014.1
20210727234723 67 266 0.0 0.0 0.01 0.50 0.50 95 1014.0
20210727233722 68 274 0.0 0.0 0.01 0.50 0.50 95 1013.7
20210727232722 68 276 0.0 0.0 0.01 0.50 0.50 95 1013.7
20210727231722 68 276 0.0 0.0 0.01 0.50 0.50 96 1013.6
20210727230722 68 276 0.0 0.0 0.01 0.50 0.50 95 1013.5
20210727225822 68 241 0.0 0.0 0.03 0.50 0.50 95 1013.5
20210727224721 68 204 0.0 0.0 0.07 0.49 0.49 95 1013.2
20210727223721 68 203 0.0 0.0 0.07 0.49 0.49 95 1013.1
20210727220721 67 340 0.0 0.0 0.08 0.49 0.49 94 1013.6
20210727215721 67 173 0.0 0.0 0.06 0.47 0.47 94 1013.2
20210727214721 67 173 0.0 0.0 0.01 0.42 0.42 95 1013.6
20210727213721 67 173 0.0 0.0 0.04 0.42 0.42 95 1013.8
20210727211721 67 173 0.0 0.0 0.09 0.41 0.41 94 1014.0
20210727210720 67 205 0.0 0.0 0.11 0.41 0.41 94 1014.1
20210727204720 68 261 0.0 0.0 0.28 0.41 0.41 93 1014.6
20210727203720 68 263 0.0 0.0 0.38 0.38 0.38 93 1015.1
20210727201750 68 198 0.0 0.0 0.32 0.32 0.32 92 1015.4
20210727200720 68 272 0.0 0.0 0.30 0.30 0.30 90 1015.4
20210727195719 69 309 0.0 0.0 0.27 0.27 0.27 87 1015.4
20210727194720 72 280 4.0 4.0 0.13 0.13 0.13 80 1016.0
20210727193719 78 282 5.0 5.0 0.00 0.00 0.00 66 1014.0
20210727192719 86 289 4.0 4.0 0.00 0.00 0.00 43 1013.1
20210727191719 87 212 6.0 6.0 0.00 0.00 0.00 42 1012.4
20210727190719 87 142 1.0 1.0 0.00 0.00 0.00 44 1011.9
20210727185719 86 275 1.0 1.0 0.00 0.00 0.00 43 1012.1
20210727184719 87 216 0.0 0.0 0.00 0.00 0.00 40 1012.5
20210727183719 86 275 1.0 1.0 0.00 0.00 0.00 44 1012.7
20210727182719 86 270 0.0 0.0 0.00 0.00 0.00 44 1012.9
20210727181718 86 286 2.0 2.0 0.00 0.00 0.00 41 1013.0
20210727180718 86 259 5.0 5.0 0.00 0.00 0.00 44 1013.4
20210727175718 85 288 3.0 3.0 0.00 0.00 0.00 44 1013.5
20210727174718 85 300 3.0 3.0 0.00 0.00 0.00 44 1013.7
20210727173718 85 257 7.0 7.0 0.00 0.00 0.00 44 1013.7
20210727172718 84 282 6.0 6.0 0.00 0.00 0.00 43 1013.7
20210727171718 84 305 3.0 3.0 0.00 0.00 0.00 46 1013.8
20210727170717 83 269 1.0 1.0 0.00 0.00 0.00 48 1013.9
20210727165817 84 274 3.0 3.0 0.00 0.00 0.00 47 1014.2
20210727164717 83 271 5.0 5.0 0.00 0.00 0.00 48 1014.2
20210727163717 82 328 7.0 7.0 0.00 0.00 0.00 55 1014.2
20210727162717 82 265 5.0 5.0 0.00 0.00 0.00 57 1014.4
20210727161717 81 261 0.0 0.0 0.00 0.00 0.00 57 1014.5
20210727160717 81 300 1.0 1.0 0.00 0.00 0.00 56 1014.6
20210727155716 81 335 3.0 3.0 0.00 0.00 0.00 59 1014.6
20210727154716 80 279 6.0 6.0 0.00 0.00 0.00 62 1014.9
20210727153716 80 263 10.0 10.0 0.00 0.00 0.00 63 1014.9
20210727152716 79 323 7.0 7.0 0.00 0.00 0.00 64 1014.9
20210727151716 78 323 3.0 3.0 0.00 0.00 0.00 67 1015.0
20210727150746 78 355 2.0 2.0 0.00 0.00 0.00 68 1015.0
20210727145716 77 262 5.0 5.0 0.00 0.00 0.00 69 1015.0
20210727144715 77 246 5.0 5.0 0.00 0.00 0.00 68 1015.0
20210727143715 76 290 2.0 2.0 0.00 0.00 0.00 70 1015.2
20210727142715 75 327 5.0 5.0 0.00 0.00 0.00 71 1015.1
20210727141715 74 309 2.0 2.0 0.00 0.00 0.00 73 1015.1
20210727140715 73 323 3.0 3.0 0.00 0.00 0.00 75 1015.1
20210727135715 73 298 2.0 2.0 0.00 0.00 0.00 75 1015.2
20210727134715 72 287 1.0 1.0 0.00 0.00 0.00 77 1015.2
20210727133744 71 273 0.0 0.0 0.00 0.00 0.00 79 1015.1
20210727132714 70 306 0.0 0.0 0.00 0.00 0.00 81 1015.1
20210727131714 69 306 0.0 0.0 0.00 0.00 0.00 82 1015.0
20210727130714 68 304 0.0 0.0 0.00 0.00 0.00 84 1015.2
20210727125714 68 307 0.0 0.0 0.00 0.00 0.00 85 1015.1
20210727124714 67 302 0.0 0.0 0.00 0.00 0.00 87 1015.2
20210727123744 66 302 0.0 0.0 0.00 0.00 0.00 88 1015.2
20210727122713 65 301 0.0 0.0 0.00 0.00 0.00 90 1015.1
20210727121713 65 300 0.0 0.0 0.00 0.00 0.00 90 1015.2
20210727120713 64 292 1.0 1.0 0.00 0.00 0.00 91 1015.2
20210727115713 64 292 1.0 1.0 0.00 0.00 0.00 91 1015.1
20210727114713 63 301 0.0 0.0 0.00 0.00 0.00 91 1015.2
20210727112712 63 305 0.0 0.0 0.00 0.00 0.00 92 1015.2
20210727110712 62 306 0.0 0.0 0.00 0.00 0.00 92 1015.0
20210727105742 62 306 0.0 0.0 0.00 0.00 0.00 92 1015.1
20210727104712 62 306 0.0 0.0 0.00 0.00 0.00 93 1015.1
20210727103742 61 306 0.0 0.0 0.00 0.00 0.00 93 1015.2
20210727102711 61 306 0.0 0.0 0.00 0.00 0.00 93 1015.1
20210727101712 61 306 0.0 0.0 0.00 0.00 0.00 93 1015.1
20210727100711 61 306 0.0 0.0 0.00 0.00 0.00 93 1015.0
20210727095741 61 306 0.0 0.0 0.00 0.00 0.00 93 1015.1
20210727093711 62 306 0.0 0.0 0.00 0.00 0.00 93 1015.0
20210727092710 62 306 0.0 0.0 0.00 0.00 0.00 93 1015.2
20210727090710 62 306 0.0 0.0 0.00 0.00 0.00 93 1015.0
20210727085710 62 306 0.0 0.0 0.00 0.00 0.00 92 1014.8
20210727084740 62 306 0.0 0.0 0.00 0.00 0.00 92 1014.6
20210727083710 62 306 0.0 0.0 0.00 0.00 0.00 92 1014.6
20210727082710 63 306 0.0 0.0 0.00 0.00 0.00 92 1014.6
20210727080710 63 306 0.0 0.0 0.00 0.00 0.00 91 1014.2
20210727074739 63 306 0.0 0.0 0.00 0.00 0.00 91 1014.4
20210727072709 63 306 0.0 0.0 0.00 0.00 0.00 91 1014.4
20210727071709 63 306 0.0 0.0 0.00 0.00 0.00 91 1014.5
20210727065739 64 306 0.0 0.0 0.00 0.00 0.00 89 1014.7
20210727064709 64 306 0.0 0.0 0.00 0.00 0.00 89 1014.6
20210727063709 64 306 0.0 0.0 0.00 0.00 0.00 89 1014.7
20210727062808 64 306 0.0 0.0 0.00 0.00 0.00 88 1014.7
20210727061709 64 306 0.0 0.0 0.00 0.00 0.00 88 1014.7
20210727060708 64 306 0.0 0.0 0.00 0.00 0.00 88 1014.6
20210727054738 65 306 0.0 0.0 0.00 0.00 0.00 87 1014.7
20210727053708 65 306 0.0 0.0 0.00 0.00 0.00 86 1014.8